Simultaneous Nadir Overpasses (SNOs) Predictions

Prediction of SNOs between FY3D and AQUA Satellite Orbit:

Table of predicted SNOs for the next 14.0 days since TLE Epoch: 8/29/2025
Index Date (FY3D) Time (FY3D) Lat,Lon (FY3D) SZA (FY3D ) Date (AQUA) Time (AQUA) Lat,Lon (AQUA) SZA (AQUA ) Distance(km) Time Diff (sec)
1 08/29/2025 22:52:04 79.57,-173.17 70.69 08/29/2025 22:52:44 79.57,-173.08 70.68 1.96 40
2 08/29/2025 23:42:38 -79.26, -3.16 109.69 08/29/2025 23:41:53 -79.27, -3.27 109.68 2.18 45
3 09/01/2025 08:22:46 79.57, 44.22 71.55 09/01/2025 08:23:26 79.56, 44.35 71.53 3.03 40
4 09/01/2025 09:13:21 -79.29,-146.02 108.79 09/01/2025 09:12:36 -79.30,-146.08 108.78 1.17 45
5 09/03/2025 17:53:26 79.51, -97.87 72.34 09/03/2025 17:54:06 79.52, -97.93 72.34 1.09 40
6 09/03/2025 18:44:04 -79.33, 71.08 107.88 09/03/2025 18:43:18 -79.32, 71.13 107.88 1.09 46
7 09/06/2025 03:24:10 79.58, 118.87 73.31 09/06/2025 03:24:48 79.58, 119.00 73.30 2.59 38
8 09/06/2025 04:14:44 -79.27, -71.05 107.07 09/06/2025 04:13:57 -79.27, -71.14 107.06 1.78 47
9 09/08/2025 12:54:50 79.54, -23.29 74.14 09/08/2025 12:55:26 79.53, -23.24 74.13 1.08 36
10 09/08/2025 13:45:28 -79.35, 145.71 106.09 09/08/2025 13:44:38 -79.34, 145.85 106.10 3.01 50
11 09/10/2025 22:25:31 79.52,-165.78 75.02 09/10/2025 22:26:04 79.52,-165.74 75.01 0.90 33



Historial Predications of SNOs between FY3D and AQUA
